Location: Tr�vern
(48.0333°N, 4.6000°W)
Time: 08:14:31
(UTC+00:00)

Meteor 1-13 Rocket - Pass Details

Date: 14 July 2020
Orbit: 830 x 913 km, 81.3° (Epoch: 04 August)

Event Time Altitude Azimuth Distance (km) Brightness Sun altitude
Rises 02:47:58 0° 345° (NNW) 3,497 8.0 -13.3°
Reaches altitude 10° 02:50:29 10° 341° (NNW) 2,541 7.2 -13.0°
Maximum altitude 02:56:05 55° 265° (W) 1,033 4.4 -12.5°
Enters shadow 03:01:03 13° 190° (S) 2,286 5.9 -12.0°
